Location: *
(46.3500°N, 10.9000°E)
Time: 20:57:04
(UTC+00:00)

Explorer 7 - Pass Details

Date: 24 April 2021
Orbit: 484 x 677 km, 50.3° (Epoch: 05 May)

Event Time Altitude Azimuth Distance (km) Brightness Sun altitude
Rises 17:31:33 0° 226° (SW) 2,571 10.8 6.6°
Reaches altitude 10° 17:33:43 10° 220° (SW) 1,711 9.8 6.2°
Maximum altitude 17:37:26 46° 146° (SE) 708 7.2 5.6°
Drops below altitude 10° 17:41:22 10° 73° (ENE) 1,812 9.0 4.9°
Sets 17:43:44 0° 68° (ENE) 2,743 9.9 4.5°
